Regional Weather Roundup
Issued by NWS Wakefield, VA

Home | Current Version | Previous Version | Text Only | Print | Product List | Glossary On
Versions: 1 2 3 4 5 6 7 8 9 10 11 12 13 14 15 16 17 18 19 20 21 22 23 24 25 26 27 28 29 30 31 32 33 34 35 36 37 38 39 40 41 42 43 44 45 46 47 48 49 50
000
ASUS41 KAKQ 210715
RWRAKQ

REGIONAL WEATHER ROUNDUP
NATIONAL WEATHER SERVICE WAKEFIELD VA
200 AM EST TUE FEB 21 2017

Note: "fair" indicates few or no clouds below 12,000 feet with no
significant weather and/or obstructions to visibility. * = Denotes
station may not report precipitation (e.g., rain,snow,etc.),
thunder or fog.

VAZ042-051-052>054-056-210800-
NORTHERN VIRGINIA

CITY           SKY/WX    TMP DP  RH WIND       PRES   REMARKS
WASH NATIONAL  MOCLDY    48  24  39 NE8       30.33R
DULLES         MOCLDY    40  28  62 NE5       30.32R
FORT BELVOIR   CLOUDY    44  28  53 CALM      30.32R
QUANTICO       CLOUDY    42  37  82 CALM      30.33R
FREDERICKSBRG* CLOUDY    40  35  81 CALM      30.31R
STAFFORD*      PTCLDY    40  32  73 CALM      30.36R
WARRENTON      CLOUDY    35  30  82 CALM      30.31S
CULPEPER*      PTCLDY    37  33  86 NE5       30.32S
MANASSAS*      CLOUDY    37  32  82 CALM      30.32S
LEESBURG*      CLOUDY    41  36  81 MISG      30.32F
WINCHESTER     CLOUDY    41  28  60 CALM      30.28F
FRONT ROYAL*   CLOUDY    46  32  57 CALM      30.26F
LURAY*         CLOUDY    45  34  65 NW5       30.27R
$$

VAZ048-049-060>072-079>083-210800-
CENTRAL AND SOUTH CENTRAL VIRGINIA

CITY           SKY/WX    TMP DP  RH WIND       PRES   REMARKS
RICHMOND       PTCLDY    42  36  79 CALM      30.29S
CHESTERFIELD*  FAIR      41  21  45 CALM      30.30S
PETERSBURG*    PTCLDY    36  33  90 CALM      30.30R
HANOVER        PTCLDY    38  32  79 CALM      30.31R
TAPPAHANNOCK*  PTCLDY    37  25  63 CALM      30.31R
QUINTON*       FAIR      39  37  93 CALM      30.29S
CHARLOTTSVILLE PTCLDY    49  32  52 N3        30.30S
GORDONSVILLE*  CLOUDY    37  34  92 CALM      30.30S
ORANGE*        MOCLDY    37  32  81 CALM      30.31F
LOUISA*        PTCLDY    41  36  81 CALM      30.28S
BUMPASS*       FAIR      40  34  78 W6        30.30S
FARMVILLE*     CLOUDY    46  40  78 N6        30.27F
CREWE*         FAIR      40  40  99 CALM      30.28R
FORT PICKETT*  FAIR      44  30  58 S6        30.28S
CHASE CITY*    FAIR      48  34  58 E5        30.25F
CLARKSVILLE*   FAIR      48  39  71 E6        30.26S
SOUTH HILL*    CLOUDY    46  36  68 CALM      30.34S
LAWRENCEVILLE* FAIR      45  34  66 CALM      30.28S
EMPORIA*       CLOUDY    37  34  87 CALM      30.30R
$$

VAZ088>098-210800-
SOUTHEAST VIRGINIA

CITY           SKY/WX    TMP DP  RH WIND       PRES   REMARKS
NORFOLK        CLOUDY    45  38  76 CALM      30.28S
VIRGINIA BEACH CLOUDY    39  33  79 CALM      30.27F
NORFOLK NAVAL  CLOUDY    45  40  82 CALM      30.30S
WEST POINT*    PTCLDY    35  33  91 CALM      30.32S
SALUDA*        FAIR      37  36  99 CALM      30.30R
NEWPORT NEWS   PTCLDY    38  35  89 CALM      30.29S
LANGLEY AFB    PTCLDY    43  39  86 CALM      30.28F
FORT EUSTIS    PTCLDY    39  34  83 CALM      30.27S
WILLIAMSBURG*  CLOUDY    41  37  87 CALM      30.31R
HR EXEC AP*    FAIR      34  28  80 W3        30.28S
FRANKLIN*      MOCLDY    36  32  86 CALM      30.28F
US460-WAKEFLD  PTCLDY    37  34  89 CALM      30.28F
$$

VAZ020-022-025-037-045-210800-
WEST CENTRAL AND SOUTHWEST VIRGINIA

CITY           SKY/WX    TMP DP  RH WIND       PRES   REMARKS
STAUNTON*      CLOUDY    44  31  60 E3        30.28S
WAYNESBORO*    CLOUDY    48  30  50 SE8G18    30.27R
HOT SPRINGS VA PTCLDY    46  27  46 SE12      30.23F
LYNCHBURG      PTCLDY    48  36  63 NE9       30.28R
DANVILLE       PTCLDY    49  40  71 E6        30.23S
SOUTH BOSTON*  FAIR      50  36  59 E3        30.25S
MARTINSVILLE   MOCLDY    41  36  83 CALM      30.25R
ROANOKE        CLOUDY    48  35  60 CALM      30.25S
BLACKSBURG     CLOUDY    52  37  56 E7        30.25R
DUBLIN*        PTCLDY    46  35  66 W3        30.23R
MARION*        CLOUDY    49  36  59 NE7       30.22S
HILLSVILLE*    PTCLDY    51  38  61 SE5       30.21S
RICHLANDS*     FAIR      56  32  40 SE12      30.16R
WISE*          PTCLDY    55  30  38 CALM      30.15F
ABINGDON*      PTCLDY    55  34  44 E9        30.16R
$$

MDZ021>025-VAZ099-100-210800-
SOUTHERN MARYLAND AND THE DELMARVA PENINSULA

CITY           SKY/WX    TMP DP  RH WIND       PRES   REMARKS
PATUXENT RIVER CLOUDY    43  36  76 E8        30.31R
BAY BRIDGE APT CLOUDY    43  23  45 E10       30.33R
LEONARDTOWN    CLOUDY    43  28  56 E3        30.32R
DOVER          CLEAR     35  26  69 NE9       30.33F
GEORGETOWN     CLOUDY    39  29  67 NE9       30.34S
EASTON         CLOUDY    43  24  46 E9G16     30.36S
CAMBRIDGE      NOT AVBL
SALISBURY      CLOUDY    38  30  73 NE5       30.32S
OCEAN CITY     PTCLDY    42  32  67 NE8       30.33R
WALLOPS ISLAND PTCLDY    43  38  82 NE12      30.31F
ACCOMACK*      CLOUDY    38  35  89 E8        30.30S
$$

NCZ012>017-030>032-210800-
NORTH CENTRAL AND EASTERN NORTH CAROLINA

CITY           SKY/WX    TMP DP  RH WIND       PRES   REMARKS
ROANOKE RAPIDS FAIR      45  37  76 CALM      30.28S
RALEIGH        MOCLDY    54  40  59 SE13      30.25R
ELIZABETH CITY PTCLDY    41  37  86 CALM      30.28S
AHOSKIE*         N/A     42  37  84 CALM      30.28S
EDENTON*       PTCLDY    45  40  81 NE3       30.28F
CURRITUCK*     PTCLDY    48  42  79 CALM      30.28S
KILL DEVIL HLS NOT AVBL
MANTEO         PTCLDY    47  42  85 E7        30.27S
CAPE HATTERAS  CLOUDY    53  43  68 NE7       30.25R
TARBORO*       NOT AVBL
GOLDSBORO      CLOUDY    47  43  87 E9        30.24S
WASHINGTON     PTCLDY    43  38  82 CALM      30.28R
GREENVILLE     CLOUDY    43  37  81 CALM      30.29R
NEW BERN       PTCLDY    44  42  93 CALM      30.28R
WILMINGTON     CLOUDY    50  45  83 NE6       30.23S
$$

VAZ048-210800-
ELSEWHERE

CITY           SKY/WX    TMP DP  RH WIND       PRES   REMARKS
HARRISBURG PA  CLOUDY    35  16  45 CALM      30.33R
BALTIMORE      PTCLDY    42  21  43 E8        30.33R
ANNAPOLIS      CLOUDY    46  25  43 E12       30.32R
ANDREWS AFB    MOCLDY    45  19  35 E10       30.30R
PHILADELPHIA   CLOUDY    38  16  40 NE5       30.35F
HENDERSON NC   PTCLDY    46  36  68 SE3       30.26S
GREENSBORO     MOCLDY    55  36  48 CALM      30.20F
ROCKY MOUNT    CLOUDY    48  38  68 E3        30.28R
$$

VAZ100-210800-
MARINE

STATION/POSITION TIME  TEMP    WIND        PRES    WAVE   SWELL
                       AIR SEA DIR/SP/G            HT/PER HT/PER
                 (UTC) (F)     (DEG/KT/KT) (MB)    (FT/S) (FT/S)
CAPE MAY NJ      0630   41 41   60/  6/ 10 1026.9R
LEWES DE         0624   42 43   80/ 13/ 15 1027.1
OCEAN-CITY-INLET 0624   44 44   70/  5/ 10 1027.2
WACHAPREAGUE VA  0624   45 50   50/  5/  7 1026.0
THOMAS POINT MD  0700   44 43  100/ 15/ 17   N/A
GOOSES REEF MD   0700   45 42  120/ 14/ 17 1026.7    1/ 2
COVE POINT MD    0624   45     100/ 13/ 17 1026.3
SOLOMONS ISLAND  0624   47 44   70/  8/ 10   N/A
BISHOPS HEAD MD  0624   44 47   70/ 10/ 12 1026.5
PINEY POINT MD   0624          110/  2/  2   N/A
POTOMAC MD       0700   44 43  100/  4/  6 1025.4    0
CAMBRIDGE MD     0624   44 42   70/ 14/ 17 1025.8
LEWISETTA VA     0624   44 47  260/  1/  1 1025.7
RAPPAHANNOCK LGT 0624           70/  5/  6 1026.3
YORK RVR RNG VA  0624   46      70/  5/  6 1024.8
YORKTOWN VA      0624   45 46   CALM  /  1 1025.3
JAMESTOWN VA     0700   45 49   50/  2/  4   N/A     0
DOMINION TERM VA 0624   48      80/  5/  7 1025.5
KIPTOPEKE VA     0624      46   90/  1/  4   N/A
CHES BAY BRIDGE  0624   47 47   70/  6/  6 1025.3
CAPE HENRY VA    0624   47      70/  6/  7   N/A
WILLOUBY STN VA  0624   47      80/  7/  7 1026.1
S CRANEY ISL VA  0624   48      90/  3/  4 1025.1
CAPE HENRY BUOY  0642      47                N/A     2/ 5
OFFSHORE WE BUOY 0651      48                N/A     2/ 5
64NM E OF VA BCH 0650   52 53   60/ 16/ 17 1024.5F   4/ 6   2/ 7
DUCK PIER NC     0624   49 48   40/  9/ 10 1024.5
44100 DUCK FRF   0605      48                N/A     3/ 6
44056 DUCK FRF   0630      49                N/A     3/ 6
OREGON INLET NC  0624   49 51   30/  7/ 10 1024.7R
HATTERAS NC      0624   54 58   40/  5/  9 1024.2
DIAMOND SHLS NC  0650   60 76   40/ 16/ 21 1023.5R   7/ 8   5/ 8
CAPE LOOKOUT NC  0700   53      10/ 10/ 12 1023.5R
$$



USA.gov is the U.S. government's official web portal to all federal, state and local government web resources and services.